Hourly Data Report for May 03, 2016

All times are specified in Local Standard Time (LST). Add 1 hour to adjust for Daylight Saving Time where and when it is observed.

LA RONGE RCS
SASKATCHEWAN

55°08'47.020" N
105°16'13.030" W
378.60 m
4064149
71586
XOX

Download Data

Hourly Data (May 2016)
Hourly Data Report for May 3, 2016
TIME Temp Definition
°C
Dew Point Definition
°C
Rel Hum Definition
%
Wind Dir Definition
10's deg

Wind Spd Definition
km/h
Visibility Definition
km
Stn Press Definition
kPa
Hmdx Definition


Wind Chill Definition


Weather Definition


00:00 7.7 -0.2 57 7 7   97.19     LegendNANA
01:00 8.4 -1.5 50 6 10   97.19     LegendNANA
02:00 6.3 -2.3 54 0 1   97.27     LegendNANA
03:00 6.3 -2.2 55 2 4   97.31     LegendNANA
04:00 4.1 -2.1 64 5 7   97.35     LegendNANA
05:00 4.4 -2.1 63 6 7   97.38     LegendNANA
06:00 5.3 -1.4 62 5 8   97.40     LegendNANA
07:00 7.0 -1.4 55 6 7   97.45     LegendNANA
08:00 10.2 -2.1 42 13 15   97.45     LegendNANA
09:00 11.8 -2.1 38 13 16   97.43     LegendNANA
10:00 13.1 -2.0 35 13 15   97.42     LegendNANA
11:00 14.2 -3.7 29 11 16   97.40     LegendNANA
12:00 15.4 -3.3 27 9 20   97.35     LegendNANA
13:00 16.8 -2.6 26 10 20   97.28     LegendNANA
14:00 19.1 -1.9 24 11 16   97.20     LegendNANA
15:00 17.2 -1.6 28 5 18   97.14     LegendNANA
16:00 18.8 -1.0 26 5 17   97.06     LegendNANA
17:00 19.0 -0.9 26 6 13   96.97     LegendNANA
18:00 19.0 -0.3 27 5 11   96.91     LegendNANA
19:00 17.5 0.0 31 5 8   96.83     LegendNANA
20:00 11.6 0.3 46 4 4   96.79     LegendNANA
21:00 8.7 -0.5 52 4 8   96.78     LegendNANA
22:00 8.8 -0.2 53 7 3   96.74     LegendNANA
23:00 12.2 0.9 46 16 8   96.71     LegendNANA

Notes on Data Quality.

Legend

  • E = Estimated
  • M = Missing
  • NA = Not Available
Date modified: